Home > Weather > Kiruna > Past weeks

Flag for Sweden Weather for the Past 2 Weeks in Kiruna, Sweden

Now
43 °F

Sunny.


Feels Like: 40 °F
Forecast: 33 / 47 °F
Wind: 5 mph from North

Location: Kiruna Airport

Current Time: May 4, 2016 at 11:30:29 PM

Latest Report: May 4, 2016 at 8:20 PM


Visibility: 10 mi

Pressure: 30.12 "Hg (28.22 "Hg at 532m altitude)

Humidity: 66%

Dew Point: 32 °F

Location of KirunaLocation

Historic Weather in Kiruna — Graph

°F

Kiruna Temperature Yesterday

Maximum temperature yesterday: 52 °F (at 5:50 PM)
Minimum temperature yesterday: 30 °F (at 1:50 AM)
Average temperature yesterday: 43 °F

High & Low Weather Summary for the Past Weeks

 TemperatureHumidityPressure
High55 °F (Apr 29, 3:20 PM)100% (Apr 23, 2:20 PM)30.36 "Hg (Apr 23, 2:20 PM)
Low10 °F (Apr 21, 3:50 AM)41% (Apr 29, 3:20 PM)29.68 "Hg (Apr 22, 6:50 PM)
Average35 °F74%29.97 "Hg
* Reported Apr 19 7:20 PM — May 4 7:50 PM, Kiruna, Weather by CustomWeather, © 2016

Note: Actual official high and low records may vary slightly from our data, if they occured in-between our weather recording intervals... More about our weather records

Advertising

Kiruna Weather History for the Previous 24 Hours

Scroll right to see more
 ConditionsComfort  
Time TempWeatherWind HumidityBarometerVisibility
7:50 PM
Wed, May 4
43 °FSunny.5 mph66%30.12 "Hg10 mi
7:20 PM43 °FSunny.6 mph71%30.12 "Hg10 mi
6:50 PM45 °FSunny.5 mph66%30.12 "Hg10 mi
6:20 PM45 °FSunny.5 mph66%30.09 "Hg10 mi
5:50 PM45 °FSunny.6 mph66%30.09 "Hg10 mi
4:50 PM43 °FScattered clouds.8 mph71%30.09 "HgN/A
4:20 PM46 °FScattered clouds.8 mph66%30.09 "HgN/A
3:50 PM50 °FSunny.10 mph58%30.07 "Hg10 mi
3:20 PM50 °FSunny.14 mph58%30.07 "Hg10 mi
2:50 PM52 °FSunny.8 mph54%30.04 "Hg10 mi
2:20 PM52 °FSunny.8 mph54%30.04 "Hg10 mi
1:20 PM52 °FSunny.10 mph54%30.04 "Hg10 mi
12:50 PM50 °FSunny.2 mph58%30.01 "Hg10 mi
12:20 PM50 °FSunny.10 mph58%30.01 "Hg10 mi
11:20 AM50 °FSunny.7 mph58%30.01 "Hg10 mi
10:20 AM48 °FSunny.8 mph58%30.01 "Hg10 mi
9:50 AM48 °FSunny.9 mph58%30.01 "Hg10 mi
8:20 AM45 °FSunny.6 mph66%29.98 "Hg10 mi
7:50 AM43 °FSunny.2 mph71%29.98 "Hg10 mi
6:50 AM41 °FSunny.3 mph76%29.98 "Hg10 mi
1:50 AM41 °FOvercast.5 mph70%29.98 "HgN/A
12:50 AM37 °FPassing clouds.5 mph75%29.98 "HgN/A
11:50 PM
Tue, May 3
37 °FChilly.3 mph70%29.98 "HgN/A
11:20 PM39 °FChilly.3 mph65%29.98 "HgN/A
Weather by CustomWeather, © 2016

See weather overviewHow to use our weather pages